When you browse on this site, cookies collect data to enhance your experience and personalize the content and advertising you see.
Visit our Privacy Policy to learn more. By continuing to use the site, you agree to this use of cookies and data.
  • în România
  • Lista ţărilor
  • Pe 7 zile
  • Temperatura apei
  • Hartă satelitară
  • Meteo pe hartă
  • Widget-uri
  • user-avatar
    Intrare

    Meteo pe oră la Punevo

    Astăzi, 20 Martie, Miercuri

    Timp Temperatura Precipitaţii Vânt Presiune Umiditate
    00:00 -1°C° 0 mm 2 m/s 748 mmHg 89%
    01:00 -1°C° 0 mm 2 m/s 749 mmHg 91%
    02:00 -2°C° 0 mm 2 m/s 749 mmHg 93%
    03:00 -2°C° 0 mm 2 m/s 749 mmHg 94%
    04:00 -2°C° 0 mm 2 m/s 749 mmHg 94%
    05:00 -2°C° 0 mm 3 m/s 749 mmHg 94%
    06:00 -1°C° 0 mm 3 m/s 750 mmHg 91%
    07:00 -1°C° 0 mm 3 m/s 750 mmHg 88%
    08:00 0°C° 0 mm 3 m/s 750 mmHg 83%
    09:00 0°C° 0 mm 3 m/s 751 mmHg 79%
    10:00 +1°C° 0 mm 3 m/s 751 mmHg 76%
    11:00 +1°C° 0 mm 3 m/s 751 mmHg 72%
    12:00 +1°C° 0 mm 3 m/s 751 mmHg 71%
    13:00 +1°C° 0 mm 3 m/s 751 mmHg 70%
    14:00 +1°C° 0 mm 3 m/s 752 mmHg 69%
    15:00 +1°C° 0 mm 3 m/s 752 mmHg 70%
    16:00 +1°C° 0 mm 3 m/s 751 mmHg 71%
    17:00 0°C° 0 mm 3 m/s 751 mmHg 73%
    18:00 +1°C° 0 mm 2 m/s 751 mmHg 75%
    19:00 +1°C° 0 mm 2 m/s 751 mmHg 77%
    20:00 -1°C° 0 mm 2 m/s 751 mmHg 79%
    21:00 -1°C° 0 mm 2 m/s 750 mmHg 79%
    22:00 -1°C° 0 mm 3 m/s 750 mmHg 79%
    23:00 -1°C° 0 mm 3 m/s 749 mmHg 79%

    Mâine, 21 Martie, Joi

    Timp Temperatura Precipitaţii Vânt Presiune Umiditate
    00:00 -1°C° 0.3 mm 3 m/s 749 mmHg 81%
    01:00 -1°C° 0.3 mm 4 m/s 748 mmHg 82%
    02:00 -1°C° 0.3 mm 4 m/s 747 mmHg 84%
    03:00 -1°C° 0.6 mm 4 m/s 747 mmHg 86%
    04:00 0°C° 0.6 mm 3 m/s 747 mmHg 88%
    05:00 0°C° 0.6 mm 3 m/s 746 mmHg 90%
    06:00 0°C° 0 mm 4 m/s 747 mmHg 88%
    07:00 0°C° 0 mm 4 m/s 747 mmHg 86%
    08:00 0°C° 0 mm 4 m/s 748 mmHg 85%
    09:00 +1°C° 0 mm 4 m/s 748 mmHg 83%
    10:00 +1°C° 0 mm 4 m/s 748 mmHg 80%
    11:00 +1°C° 0 mm 4 m/s 749 mmHg 78%
    12:00 +3°C° 0 mm 4 m/s 749 mmHg 76%
    13:00 +4°C° 0 mm 3 m/s 749 mmHg 74%
    14:00 +5°C° 0 mm 3 m/s 749 mmHg 72%
    15:00 +4°C° 0 mm 3 m/s 749 mmHg 73%
    16:00 +5°C° 0 mm 2 m/s 749 mmHg 75%
    17:00 +6°C° 0 mm 1 m/s 749 mmHg 77%
    18:00 +5°C° 0 mm 1 m/s 749 mmHg 80%
    19:00 +4°C° 0 mm 1 m/s 749 mmHg 83%
    20:00 +3°C° 0 mm 1 m/s 749 mmHg 87%
    21:00 +2°C° 0 mm 2 m/s 749 mmHg 88%
    22:00 +2°C° 0 mm 2 m/s 748 mmHg 89%
    23:00 +2°C° 0 mm 2 m/s 748 mmHg 90%

    Poimâine, 22 Martie, Vineri

    Timp Temperatura Precipitaţii Vânt Presiune Umiditate
    00:00 +2°C° 0.1 mm 2 m/s 748 mmHg 91%
    01:00 +2°C° 0.1 mm 2 m/s 747 mmHg 93%
    02:00 +3°C° 0.1 mm 2 m/s 747 mmHg 94%
    03:00 +2°C° 0.5 mm 3 m/s 746 mmHg 95%
    04:00 +2°C° 0.5 mm 3 m/s 745 mmHg 95%
    05:00 +3°C° 0.5 mm 3 m/s 745 mmHg 96%
    06:00 +3°C° 0.3 mm 3 m/s 745 mmHg 95%
    07:00 +4°C° 0.3 mm 4 m/s 745 mmHg 93%
    08:00 +4°C° 0.3 mm 4 m/s 746 mmHg 92%
    09:00 +5°C° 0 mm 4 m/s 746 mmHg 84%
    10:00 +5°C° 0 mm 5 m/s 746 mmHg 75%
    11:00 +6°C° 0 mm 5 m/s 747 mmHg 67%
    12:00 +6°C° 0 mm 5 m/s 747 mmHg 61%
    13:00 +6°C° 0 mm 5 m/s 747 mmHg 55%
    14:00 +6°C° 0 mm 5 m/s 747 mmHg 50%
    15:00 +6°C° 0 mm 5 m/s 747 mmHg 51%
    16:00 +5°C° 0 mm 4 m/s 747 mmHg 52%
    17:00 +4°C° 0 mm 4 m/s 747 mmHg 54%
    18:00 +3°C° 0 mm 4 m/s 748 mmHg 58%
    19:00 +2°C° 0 mm 3 m/s 748 mmHg 63%
    20:00 +1°C° 0 mm 3 m/s 749 mmHg 68%
    21:00 0°C° 0 mm 3 m/s 749 mmHg 72%
    22:00 -1°C° 0 mm 3 m/s 749 mmHg 76%
    23:00 -1°C° 0 mm 2 m/s 749 mmHg 79%

    23 Martie, Sâmbătă

    Timp Temperatura Precipitaţii Vânt Presiune Umiditate
    00:00 -2°C° 0 mm 2 m/s 749 mmHg 82%
    01:00 -2°C° 0 mm 2 m/s 749 mmHg 85%
    02:00 -1°C° 0 mm 1 m/s 749 mmHg 87%
    03:00 -1°C° 0 mm 1 m/s 749 mmHg 88%
    04:00 -1°C° 0 mm 1 m/s 749 mmHg 88%
    05:00 -1°C° 0 mm 1 m/s 749 mmHg 89%
    06:00 0°C° 0 mm 1 m/s 749 mmHg 84%
    07:00 +1°C° 0 mm 1 m/s 748 mmHg 78%
    08:00 +2°C° 0 mm 1 m/s 748 mmHg 73%
    09:00 +2°C° 0 mm 2 m/s 747 mmHg 68%
    10:00 +3°C° 0 mm 3 m/s 747 mmHg 62%
    11:00 +4°C° 0 mm 3 m/s 746 mmHg 56%
    12:00 +5°C° 0 mm 4 m/s 745 mmHg 65%
    13:00 +5°C° 0 mm 4 m/s 744 mmHg 74%
    14:00 +5°C° 0 mm 4 m/s 743 mmHg 82%
    15:00 +5°C° 0.3 mm 4 m/s 742 mmHg 85%
    16:00 +5°C° 0.3 mm 5 m/s 742 mmHg 88%
    17:00 +6°C° 0.3 mm 5 m/s 741 mmHg 91%
    18:00 +5°C° 0.1 mm 5 m/s 741 mmHg 84%
    19:00 +3°C° 0.1 mm 5 m/s 742 mmHg 78%
    20:00 +2°C° 0.1 mm 5 m/s 742 mmHg 71%
    21:00 +1°C° 0 mm 5 m/s 742 mmHg 71%
    22:00 0°C° 0 mm 4 m/s 742 mmHg 70%
    23:00 -1°C° 0 mm 4 m/s 743 mmHg 70%

    24 Martie, Duminică

    Timp Temperatura Precipitaţii Vânt Presiune Umiditate
    00:00 -1°C° 0 mm 4 m/s 743 mmHg 71%
    01:00 -2°C° 0 mm 4 m/s 743 mmHg 72%
    02:00 -2°C° 0 mm 4 m/s 743 mmHg 73%
    03:00 -2°C° 0 mm 4 m/s 742 mmHg 73%
    04:00 -2°C° 0 mm 4 m/s 742 mmHg 73%
    05:00 -2°C° 0 mm 4 m/s 742 mmHg 74%
    06:00 -1°C° 0 mm 5 m/s 742 mmHg 70%
    07:00 -2°C° 0 mm 6 m/s 742 mmHg 66%
    08:00 -1°C° 0 mm 7 m/s 742 mmHg 62%
    09:00 -1°C° 0 mm 7 m/s 742 mmHg 60%
    10:00 -1°C° 0 mm 7 m/s 743 mmHg 57%
    11:00 -1°C° 0 mm 8 m/s 743 mmHg 54%
    12:00 0°C° 0 mm 7 m/s 743 mmHg 54%
    13:00 0°C° 0 mm 7 m/s 743 mmHg 53%
    14:00 0°C° 0 mm 7 m/s 743 mmHg 52%
    15:00 +1°C° 0 mm 6 m/s 743 mmHg 49%
    16:00 +1°C° 0 mm 6 m/s 743 mmHg 46%
    17:00 +1°C° 0 mm 5 m/s 744 mmHg 42%
    18:00 0°C° 0 mm 5 m/s 744 mmHg 45%
    19:00 -1°C° 0 mm 4 m/s 744 mmHg 49%
    20:00 -2°C° 0 mm 4 m/s 745 mmHg 52%
    21:00 -1°C° 0 mm 3 m/s 745 mmHg 57%
    22:00 -2°C° 0 mm 3 m/s 745 mmHg 61%
    23:00 -2°C° 0 mm 3 m/s 745 mmHg 66%

    25 Martie, Luni

    Timp Temperatura Precipitaţii Vânt Presiune Umiditate
    00:00 -2°C° 0 mm 2 m/s 745 mmHg 70%
    01:00 -3°C° 0 mm 2 m/s 744 mmHg 73%
    02:00 -3°C° 0 mm 2 m/s 744 mmHg 77%
    03:00 -3°C° 0 mm 2 m/s 744 mmHg 76%
    04:00 -3°C° 0 mm 2 m/s 743 mmHg 74%
    05:00 -3°C° 0 mm 2 m/s 743 mmHg 72%
    06:00 -2°C° 0 mm 3 m/s 742 mmHg 69%
    07:00 -1°C° 0 mm 3 m/s 741 mmHg 65%
    08:00 -1°C° 0 mm 4 m/s 741 mmHg 61%
    09:00 0°C° 0 mm 4 m/s 740 mmHg 55%
    10:00 +1°C° 0 mm 5 m/s 739 mmHg 50%
    11:00 +2°C° 0 mm 5 m/s 738 mmHg 44%
    12:00 +3°C° 0 mm 5 m/s 737 mmHg 45%
    13:00 +3°C° 0 mm 5 m/s 736 mmHg 46%
    14:00 +3°C° 0 mm 6 m/s 735 mmHg 47%
    15:00 +3°C° 0.1 mm 5 m/s 734 mmHg 52%
    16:00 +2°C° 0.1 mm 5 m/s 734 mmHg 56%
    17:00 +3°C° 0.1 mm 4 m/s 733 mmHg 61%
    18:00 +1°C° 0.5 mm 4 m/s 732 mmHg 66%
    19:00 +2°C° 0.5 mm 3 m/s 732 mmHg 71%
    20:00 +1°C° 0.5 mm 3 m/s 731 mmHg 76%
    21:00 +1°C° 0.7 mm 3 m/s 731 mmHg 80%
    22:00 0°C° 0.7 mm 3 m/s 731 mmHg 84%
    23:00 0°C° 0.7 mm 3 m/s 731 mmHg 88%
    Arată mai mult